15/04/2024 01:30:00,1.443
15/04/2024 01:45:00,1.489
15/04/2024 02:00:00,1.529
15/04/2024 02:15:00,1.566
15/04/2024 02:30:00,1.596
15/04/2024 02:45:00,1.623
15/04/2024 03:00:00,1.648
15/04/2024 03:15:00,1.663
15/04/2024 03:30:00,1.671
15/04/2024 03:45:00,1.669
15/04/2024 04:00:00,1.668
15/04/2024 04:15:00,1.657
15/04/2024 04:30:00,1.646
15/04/2024 04:45:00,1.64
15/04/2024 05:00:00,1.637
15/04/2024 05:15:00,1.634
15/04/2024 05:30:00,1.641
15/04/2024 05:45:00,1.654
15/04/2024 06:00:00,1.662
15/04/2024 06:15:00,1.675
15/04/2024 06:30:00,1.684
15/04/2024 06:45:00,1.681
15/04/2024 07:00:00,1.675
15/04/2024 07:15:00,1.659
15/04/2024 07:30:00,1.642
15/04/2024 07:45:00,1.623
15/04/2024 08:00:00,1.601
15/04/2024 08:15:00,1.58
15/04/2024 08:30:00,1.556
15/04/2024 08:45:00,1.534
15/04/2024 09:00:00,1.511
15/04/2024 09:15:00,1.492
15/04/2024 09:30:00,1.469
15/04/2024 09:45:00,1.446
15/04/2024 10:00:00,1.422
15/04/2024 10:15:00,1.397
15/04/2024 10:30:00,1.378
15/04/2024 10:45:00,1.36
15/04/2024 11:00:00,1.347
15/04/2024 11:15:00,1.33
15/04/2024 11:30:00,1.315
15/04/2024 11:45:00,1.301
15/04/2024 12:00:00,1.295
15/04/2024 12:15:00,1.278
15/04/2024 12:30:00,1.269
15/04/2024 12:45:00,1.257
15/04/2024 13:00:00,1.25
15/04/2024 13:15:00,1.24
15/04/2024 13:30:00,1.233
15/04/2024 13:45:00,1.222
15/04/2024 14:00:00,1.219
15/04/2024 14:15:00,1.212
15/04/2024 14:30:00,1.204
15/04/2024 14:45:00,1.199
15/04/2024 15:00:00,1.192
15/04/2024 15:15:00,1.185
15/04/2024 15:30:00,1.184
15/04/2024 15:45:00,1.175
15/04/2024 16:00:00,1.174
15/04/2024 16:15:00,1.168
15/04/2024 16:30:00,1.163
15/04/2024 16:45:00,1.157
15/04/2024 17:00:00,1.154
15/04/2024 17:15:00,1.148
15/04/2024 17:30:00,1.149
15/04/2024 17:45:00,1.145
15/04/2024 18:00:00,1.137
15/04/2024 18:15:00,1.137
15/04/2024 18:30:00,1.128
15/04/2024 18:45:00,1.126
15/04/2024 19:00:00,1.122
15/04/2024 19:15:00,1.118
15/04/2024 19:30:00,1.117
15/04/2024 19:45:00,1.113
15/04/2024 20:00:00,1.11
15/04/2024 20:15:00,1.109
15/04/2024 20:30:00,1.105
15/04/2024 20:45:00,1.105
15/04/2024 21:00:00,1.098
15/04/2024 21:15:00,1.099
15/04/2024 21:30:00,1.096
15/04/2024 21:45:00,1.09
15/04/2024 22:00:00,1.087
15/04/2024 22:15:00,1.087
15/04/2024 22:30:00,1.083
15/04/2024 22:45:00,1.082
15/04/2024 23:00:00,1.081
15/04/2024 23:15:00,1.077
15/04/2024 23:30:00,1.075
15/04/2024 23:45:00,1.071
16/04/2024 00:00:00,1.066
16/04/2024 00:15:00,1.066
16/04/2024 00:30:00,1.064
16/04/2024 00:45:00,1.065
16/04/2024 01:00:00,1.059
16/04/2024 01:15:00,1.059
16/04/2024 01:30:00,1.056
16/04/2024 01:45:00,1.055
16/04/2024 02:00:00,1.053
16/04/2024 02:15:00,1.049
16/04/2024 02:30:00,1.047
16/04/2024 02:45:00,1.047
16/04/2024 03:00:00,1.045
16/04/2024 03:15:00,1.042
16/04/2024 03:30:00,1.042
16/04/2024 03:45:00,1.042
16/04/2024 04:00:00,1.039
16/04/2024 04:15:00,1.041
16/04/2024 04:30:00,1.04
16/04/2024 04:45:00,1.036
16/04/2024 05:00:00,1.037
16/04/2024 05:15:00,1.036
16/04/2024 05:30:00,1.033
16/04/2024 05:45:00,1.033
16/04/2024 06:00:00,1.028
16/04/2024 06:15:00,1.029
16/04/2024 06:30:00,1.029
16/04/2024 06:45:00,1.028
16/04/2024 07:00:00,1.026
16/04/2024 07:15:00,1.024
16/04/2024 07:30:00,1.019
16/04/2024 07:45:00,1.021
16/04/2024 08:00:00,1.02
16/04/2024 08:15:00,1.018
16/04/2024 08:30:00,1.018
16/04/2024 08:45:00,1.016
16/04/2024 09:00:00,1.016
16/04/2024 09:15:00,1.016
16/04/2024 09:30:00,1.013
16/04/2024 09:45:00,1.014
16/04/2024 10:00:00,1.015
16/04/2024 10:15:00,1.01
16/04/2024 10:30:00,1.013
16/04/2024 10:45:00,1.009
16/04/2024 11:00:00,1.009
16/04/2024 11:15:00,1.006
16/04/2024 11:30:00,1.008
16/04/2024 11:45:00,1.006
16/04/2024 12:00:00,1.005
16/04/2024 12:15:00,1.005
16/04/2024 12:30:00,1.002
16/04/2024 12:45:00,1.007
16/04/2024 13:00:00,1.005
16/04/2024 13:15:00,1.002
16/04/2024 13:30:00,1.002
16/04/2024 13:45:00,1.001
16/04/2024 14:00:00,1
16/04/2024 14:15:00,1.001
16/04/2024 14:30:00,0.998
16/04/2024 14:45:00,0.997
16/04/2024 15:00:00,0.998
16/04/2024 15:15:00,0.995
16/04/2024 15:30:00,0.993
16/04/2024 15:45:00,0.991
16/04/2024 16:00:00,0.991
16/04/2024 16:15:00,0.993
16/04/2024 16:30:00,0.989
16/04/2024 16:45:00,0.988
16/04/2024 17:00:00,0.989
16/04/2024 17:15:00,0.986
16/04/2024 17:30:00,0.987
16/04/2024 17:45:00,0.985
16/04/2024 18:00:00,0.985
16/04/2024 18:15:00,0.984
16/04/2024 18:30:00,0.983
16/04/2024 18:45:00,0.981
16/04/2024 19:00:00,0.982
16/04/2024 19:15:00,0.978
16/04/2024 19:30:00,0.978
16/04/2024 19:45:00,0.978
16/04/2024 20:00:00,0.978
16/04/2024 20:15:00,0.977
16/04/2024 20:30:00,0.978
16/04/2024 20:45:00,0.977
16/04/2024 21:00:00,0.973
16/04/2024 21:15:00,0.974
16/04/2024 21:30:00,0.971
16/04/2024 21:45:00,0.969
16/04/2024 22:00:00,0.966
16/04/2024 22:15:00,0.964
16/04/2024 22:30:00,0.963
16/04/2024 22:45:00,0.962
16/04/2024 23:00:00,0.96
16/04/2024 23:15:00,0.959
16/04/2024 23:30:00,0.959
16/04/2024 23:45:00,0.955
17/04/2024 00:00:00,0.955
17/04/2024 00:15:00,0.954
17/04/2024 00:30:00,0.954
17/04/2024 00:45:00,0.953
17/04/2024 01:00:00,0.955
17/04/2024 01:15:00,0.955
17/04/2024 01:30:00,0.954
17/04/2024 01:45:00,0.954
17/04/2024 02:00:00,0.954
17/04/2024 02:15:00,0.952
17/04/2024 02:30:00,0.953
17/04/2024 02:45:00,0.95
17/04/2024 03:00:00,0.947
17/04/2024 03:15:00,0.95
17/04/2024 03:30:00,0.947
17/04/2024 03:45:00,0.947
17/04/2024 04:00:00,0.946
17/04/2024 04:15:00,0.946
17/04/2024 04:30:00,0.944
17/04/2024 04:45:00,0.945
17/04/2024 05:00:00,0.944
17/04/2024 05:15:00,0.941
17/04/2024 05:30:00,0.945
17/04/2024 05:45:00,0.941
17/04/2024 06:00:00,0.945
17/04/2024 06:15:00,0.942
17/04/2024 06:30:00,0.943
17/04/2024 06:45:00,0.941
17/04/2024 07:00:00,0.943
17/04/2024 07:15:00,0.944
17/04/2024 07:30:00,0.94
17/04/2024 07:45:00,0.939
17/04/2024 08:00:00,0.941
17/04/2024 08:15:00,0.942
17/04/2024 08:30:00,0.941
17/04/2024 08:45:00,0.937
17/04/2024 09:00:00,0.941
17/04/2024 09:15:00,0.939
17/04/2024 09:30:00,0.938
17/04/2024 09:45:00,0.938
17/04/2024 10:00:00,0.937
17/04/2024 10:15:00,0.936
17/04/2024 10:30:00,0.934
17/04/2024 10:45:00,0.931
17/04/2024 11:00:00,0.928
17/04/2024 11:15:00,0.925
17/04/2024 11:30:00,0.921
17/04/2024 11:45:00,0.917
17/04/2024 12:00:00,0.912
17/04/2024 12:15:00,0.908
17/04/2024 12:30:00,0.903
17/04/2024 12:45:00,0.903
17/04/2024 13:00:00,0.901
17/04/2024 13:15:00,0.899
17/04/2024 13:30:00,0.901
17/04/2024 13:45:00,0.9
17/04/2024 14:00:00,0.9
17/04/2024 14:15:00,0.9
17/04/2024 14:30:00,0.896
17/04/2024 14:45:00,0.897
17/04/2024 15:00:00,0.895
17/04/2024 15:15:00,0.894
17/04/2024 15:30:00,0.891
17/04/2024 15:45:00,0.892
17/04/2024 16:00:00,0.892
17/04/2024 16:15:00,0.893
17/04/2024 16:30:00,0.894
17/04/2024 16:45:00,0.895
17/04/2024 17:00:00,0.894
17/04/2024 17:15:00,0.893
17/04/2024 17:30:00,0.892
17/04/2024 17:45:00,0.89
17/04/2024 18:00:00,0.889
17/04/2024 18:15:00,0.888
17/04/2024 18:30:00,0.888
17/04/2024 18:45:00,0.89
17/04/2024 19:00:00,0.888
17/04/2024 19:15:00,0.887
17/04/2024 19:30:00,0.888
17/04/2024 19:45:00,0.887
17/04/2024 20:00:00,0.884
17/04/2024 20:15:00,0.884
17/04/2024 20:30:00,0.885
17/04/2024 20:45:00,0.887
17/04/2024 21:00:00,0.883
17/04/2024 21:15:00,0.885
17/04/2024 21:30:00,0.883
17/04/2024 21:45:00,0.881
17/04/2024 22:00:00,0.882
17/04/2024 22:15:00,0.88
17/04/2024 22:30:00,0.881
17/04/2024 22:45:00,0.88
17/04/2024 23:00:00,0.879
17/04/2024 23:15:00,0.878
17/04/2024 23:30:00,0.876
17/04/2024 23:45:00,0.878
18/04/2024 00:00:00,0.877
18/04/2024 00:15:00,0.875
18/04/2024 00:30:00,0.877
18/04/2024 00:45:00,0.875
18/04/2024 01:00:00,0.877
18/04/2024 01:15:00,0.876
18/04/2024 01:30:00,0.874
18/04/2024 01:45:00,0.875
18/04/2024 02:00:00,0.873
18/04/2024 02:15:00,0.873
18/04/2024 02:30:00,0.872
18/04/2024 02:45:00,0.873
18/04/2024 03:00:00,0.872
18/04/2024 03:15:00,0.871
18/04/2024 03:30:00,0.872
18/04/2024 03:45:00,0.874
18/04/2024 04:00:00,0.873
18/04/2024 04:15:00,0.872
18/04/2024 04:30:00,0.87
18/04/2024 04:45:00,0.872
18/04/2024 05:00:00,0.871
18/04/2024 05:15:00,0.871
18/04/2024 05:30:00,0.87
18/04/2024 05:45:00,0.869
18/04/2024 06:00:00,0.872
18/04/2024 06:15:00,0.869
18/04/2024 06:30:00,0.869
18/04/2024 06:45:00,0.87
18/04/2024 07:00:00,0.869
18/04/2024 07:15:00,0.867
18/04/2024 07:30:00,0.87
18/04/2024 07:45:00,0.868
18/04/2024 08:00:00,0.868
18/04/2024 08:15:00,0.868
18/04/2024 08:30:00,0.868
18/04/2024 08:45:00,0.867
18/04/2024 09:00:00,0.869
18/04/2024 09:15:00,0.868
18/04/2024 09:30:00,0.869
18/04/2024 09:45:00,0.869
18/04/2024 10:00:00,0.868
18/04/2024 10:15:00,0.87
18/04/2024 10:30:00,0.867
18/04/2024 10:45:00,0.867
18/04/2024 11:00:00,0.862
18/04/2024 11:15:00,0.864
18/04/2024 11:30:00,0.861
18/04/2024 11:45:00,0.855
18/04/2024 12:00:00,0.85
18/04/2024 12:15:00,0.847
18/04/2024 12:30:00,0.846
18/04/2024 12:45:00,0.844
18/04/2024 13:00:00,0.841
18/04/2024 13:15:00,0.838
18/04/2024 13:30:00,0.839
18/04/2024 13:45:00,0.839
18/04/2024 14:00:00,0.837
18/04/2024 14:15:00,0.836
18/04/2024 14:30:00,0.837
18/04/2024 14:45:00,0.834
18/04/2024 15:00:00,0.836
18/04/2024 15:15:00,0.836
18/04/2024 15:30:00,0.839
18/04/2024 15:45:00,0.838
18/04/2024 16:00:00,0.835
18/04/2024 16:15:00,0.834
18/04/2024 16:30:00,0.834
18/04/2024 16:45:00,0.832
18/04/2024 17:00:00,0.828
18/04/2024 17:15:00,0.825
18/04/2024 17:30:00,0.821
18/04/2024 17:45:00,0.812
18/04/2024 18:00:00,0.81
18/04/2024 18:15:00,0.805
18/04/2024 18:30:00,0.8
18/04/2024 18:45:00,0.797
18/04/2024 19:00:00,0.795
18/04/2024 19:15:00,0.794
18/04/2024 19:30:00,0.791
18/04/2024 19:45:00,0.792
18/04/2024 20:00:00,0.79
18/04/2024 20:15:00,0.79
18/04/2024 20:30:00,0.788
18/04/2024 20:45:00,0.787
18/04/2024 21:00:00,0.786
18/04/2024 21:15:00,0.785
18/04/2024 21:30:00,0.784
18/04/2024 21:45:00,0.783
18/04/2024 22:00:00,0.783
18/04/2024 22:15:00,0.784
18/04/2024 22:30:00,0.782
18/04/2024 22:45:00,0.781
18/04/2024 23:00:00,0.781
18/04/2024 23:15:00,0.78
18/04/2024 23:30:00,0.781
18/04/2024 23:45:00,0.78
19/04/2024 00:00:00,0.779
19/04/2024 00:15:00,0.779
19/04/2024 00:30:00,0.778
19/04/2024 00:45:00,0.778
19/04/2024 01:00:00,0.778
19/04/2024 01:15:00,0.778
19/04/2024 01:30:00,0.778
19/04/2024 01:45:00,0.777
19/04/2024 02:00:00,0.777
19/04/2024 02:15:00,0.776
19/04/2024 02:30:00,0.776
19/04/2024 02:45:00,0.776
19/04/2024 03:00:00,0.775
19/04/2024 03:15:00,0.775
19/04/2024 03:30:00,0.774
19/04/2024 03:45:00,0.775
19/04/2024 04:00:00,0.774
19/04/2024 04:15:00,0.774
19/04/2024 04:30:00,0.775
19/04/2024 04:45:00,0.774
19/04/2024 05:00:00,0.774
19/04/2024 05:15:00,0.772
19/04/2024 05:30:00,0.772
19/04/2024 05:45:00,0.772
19/04/2024 06:00:00,0.771
19/04/2024 06:15:00,0.771
19/04/2024 06:30:00,0.771
19/04/2024 06:45:00,0.771
19/04/2024 07:00:00,0.771
19/04/2024 07:15:00,0.77
19/04/2024 07:30:00,0.771
19/04/2024 07:45:00,0.771
19/04/2024 08:00:00,0.77
19/04/2024 08:15:00,0.77
19/04/2024 08:30:00,0.77
19/04/2024 08:45:00,0.77
19/04/2024 09:00:00,0.771
19/04/2024 09:15:00,0.771
19/04/2024 09:30:00,0.771
19/04/2024 09:45:00,0.77
19/04/2024 10:00:00,0.769
19/04/2024 10:15:00,0.768
19/04/2024 10:30:00,0.768
19/04/2024 10:45:00,0.768
19/04/2024 11:00:00,0.765
19/04/2024 11:15:00,0.765
19/04/2024 11:30:00,0.763
19/04/2024 11:45:00,0.76
19/04/2024 12:00:00,0.758
19/04/2024 12:15:00,0.755
19/04/2024 12:30:00,0.752
19/04/2024 12:45:00,0.749
19/04/2024 13:00:00,0.746
19/04/2024 13:15:00,0.743
19/04/2024 13:30:00,0.742
19/04/2024 13:45:00,0.741
19/04/2024 14:00:00,0.739
19/04/2024 14:15:00,0.738
19/04/2024 14:30:00,0.739
19/04/2024 14:45:00,0.738
19/04/2024 15:00:00,0.738
19/04/2024 15:15:00,0.737
19/04/2024 15:30:00,0.737
19/04/2024 15:45:00,0.736
19/04/2024 16:00:00,0.737
19/04/2024 16:15:00,0.737
19/04/2024 16:30:00,0.734
19/04/2024 16:45:00,0.734
19/04/2024 17:00:00,0.734
19/04/2024 17:15:00,0.735
19/04/2024 17:30:00,0.733
19/04/2024 17:45:00,0.733
19/04/2024 18:00:00,0.733
19/04/2024 18:15:00,0.732
19/04/2024 18:30:00,0.732
19/04/2024 18:45:00,0.733
19/04/2024 19:00:00,0.732
19/04/2024 19:15:00,0.732
19/04/2024 19:30:00,0.733
19/04/2024 19:45:00,0.73
19/04/2024 20:00:00,0.73
19/04/2024 20:15:00,0.729
19/04/2024 20:30:00,0.728
19/04/2024 20:45:00,0.728
19/04/2024 21:00:00,0.728
19/04/2024 21:15:00,0.726
19/04/2024 21:30:00,0.724
19/04/2024 21:45:00,0.724
19/04/2024 22:00:00,0.72
19/04/2024 22:15:00,0.717
19/04/2024 22:30:00,0.713
19/04/2024 22:45:00,0.709
19/04/2024 23:00:00,0.706
19/04/2024 23:15:00,0.703
19/04/2024 23:30:00,0.701
19/04/2024 23:45:00,0.699
20/04/2024 00:00:00,0.698
20/04/2024 00:15:00,0.696
20/04/2024 00:30:00,0.697
20/04/2024 00:45:00,0.695
20/04/2024 01:00:00,0.694
